Terminal Aerodrome Forecast
Issued by NWS Miami, FL

Home | Current Version | Previous Version | Text Only | Print | Product List | Glossary On
Versions: 1 2 3 4 5 6 7 8 9 10 11 12 13 14 15 16 17 18 19 20 21 22 23 24 25 26 27 28 29 30 31 32 33 34 35 36 37 38 39 40 41 42 43 44 45 46
000
FTUS42 KMFL 042321
TAFFLL
TAF
KFLL 042321Z 0500/0524 VRB05KT P6SM VCSH FEW035 SCT090 BKN150
     FM050200 VRB03KT P6SM FEW025 BKN250
     FM051600 10009KT P6SM VCTS SCT035CB BKN060 BKN250=

USA.gov is the U.S. government's official web portal to all federal, state and local government web resources and services.